KD5OH Weather Reports


Display with metric or nautical units.
time (UTC)temp
F
wind
direction
speed
MPH
gust
MPH
rain 1hr
in
rain 24hr
in
rain mn
in
humidity
%
barometer
mb
20260502233128 66 251 2.0 10.0 0.00 0.00 0.00 36 1022.0
20260502231625 67 240 6.0 12.0 0.00 0.00 0.00 36 1022.1
20260502230120 67 255 5.0 18.0 0.00 0.00 0.00 36 1022.2
20260502224636 67 246 6.0 10.0 0.00 0.00 0.00 37 1022.3
20260502223128 67 153 6.0 10.0 0.00 0.00 0.00 37 1022.3
20260502221623 66 216 4.0 7.0 0.00 0.00 0.00 37 1022.6
20260502220156 66 263 5.0 11.0 0.00 0.00 0.00 39 1022.7
20260502214629 66 234 7.0 11.0 0.00 0.00 0.00 38 1023.0
20260502213127 65 286 3.0 10.0 0.00 0.00 0.00 41 1023.2
20260502211620 66 163 3.0 12.0 0.00 0.00 0.00 39 1023.5
20260502210136 65 131 1.0 6.0 0.00 0.00 0.00 41 1023.8
20260502204647 65 233 3.0 9.0 0.00 0.00 0.00 40 1024.1
20260502203119 64 184 5.0 10.0 0.00 0.00 0.00 40 1024.3
20260502201634 64 244 7.0 12.0 0.00 0.00 0.00 42 1024.4
20260502200125 65 170 9.0 17.0 0.00 0.00 0.00 40 1024.4
20260502194621 63 225 8.0 13.0 0.00 0.00 0.00 42 1024.5
20260502193133 64 224 6.0 13.0 0.00 0.00 0.00 43 1024.6
20260502191631 62 115 6.0 11.0 0.00 0.00 0.00 43 1024.9
20260502190123 63 163 6.0 11.0 0.00 0.00 0.00 45 1025.0
20260502184637 61 200 2.0 12.0 0.00 0.00 0.00 48 1025.4
20260502183134 61 156 2.0 7.0 0.00 0.00 0.00 48 1025.5
20260502181627 61 136 6.0 8.0 0.00 0.00 0.00 51 1025.9
20260502180125 60 156 5.0 7.0 0.00 0.00 0.00 54 1026.0
20260502170139 58 86 1.0 4.0 0.00 0.00 0.00 56 1026.6
20260502163130 54 90 1.0 3.0 0.00 0.00 0.00 64 1026.5
20260502161626 53 26 1.0 4.0 0.00 0.00 0.00 63 1026.4
20260502160140 53 49 3.0 4.0 0.00 0.00 0.00 68 1026.4
20260502151643 51 267 0.0 1.0 0.00 0.00 0.00 70 1026.1
20260502150133 51 295 0.0 4.0 0.00 0.00 0.00 72 1026.0
20260502140127 49 241 1.0 3.0 0.00 0.01 0.00 74 1025.4
20260502130158 48 256 0.0 1.0 0.00 0.07 0.00 75 1024.9
20260502123126 48 158 0.0 1.0 0.00 0.13 0.00 74 1024.6
20260502121659 48 130 1.0 2.0 0.00 0.13 0.00 73 1024.6
20260502120135 49 166 1.0 2.0 0.00 0.13 0.00 72 1024.5
20260502114647 49 213 0.0 2.0 0.00 0.24 0.00 72 1024.5
20260502113142 49 155 1.0 2.0 0.00 0.24 0.00 72 1024.5
20260502111633 49 206 1.0 5.0 0.00 0.24 0.00 71 1024.1
20260502110124 49 226 3.0 7.0 0.00 0.24 0.00 72 1024.1
20260502104640 49 229 3.0 6.0 0.00 0.67 0.00 71 1023.9
20260502103131 49 211 2.0 4.0 0.00 0.67 0.00 71 1023.8
20260502101625 49 198 4.0 7.0 0.00 0.67 0.00 72 1023.8
20260502100136 49 173 3.0 7.0 0.00 0.67 0.00 72 1023.5
20260502090131 50 206 4.0 8.0 0.00 0.80 0.00 72 1023.1
20260502070135 51 109 2.0 2.0 0.00 0.80 0.00 70 1022.7
20260502064631 51 11 0.0 0.0 0.00 0.80 0.00 69 1022.7
20260502063122 51 10 0.0 1.0 0.00 0.80 0.00 69 1022.7
20260502061635 51 329 1.0 4.0 0.00 0.80 0.00 67 1023.0
20260502060132 52 327 3.0 7.0 0.00 0.80 0.00 67 1022.8
20260502054624 52 328 3.0 8.0 0.00 0.80 0.80 67 1022.7
20260502053140 52 305 4.0 7.0 0.00 0.80 0.80 67 1022.7
20260502051652 52 303 5.0 9.0 0.00 0.80 0.80 65 1022.4
20260502050128 52 315 6.0 10.0 0.00 0.80 0.80 67 1022.3
20260502044640 53 324 4.0 7.0 0.00 0.80 0.80 68 1022.1
20260502043131 53 304 4.0 8.0 0.00 0.80 0.80 67 1022.3
20260502041627 54 331 3.0 10.0 0.00 0.80 0.80 66 1022.0
20260502040139 54 308 6.0 10.0 0.00 0.80 0.80 65 1021.7
20260502034635 55 286 5.0 10.0 0.00 0.80 0.80 66 1021.3
20260502033129 56 301 3.0 6.0 0.00 0.80 0.80 67 1021.0
20260502031644 56 295 1.0 3.0 0.00 0.80 0.80 68 1020.6
20260502030137 57 289 0.0 0.0 0.00 0.80 0.80 66 1020.3
20260502024629 57 16 0.0 0.0 0.00 0.80 0.80 65 1020.1
20260502023126 57 252 0.0 0.0 0.00 0.80 0.80 65 1019.6
20260502021639 57 238 1.0 3.0 0.00 0.80 0.80 64 1019.4
20260502020131 57 272 0.0 0.0 0.00 0.80 0.80 63 1019.1
20260502014626 59 247 0.0 3.0 0.00 0.80 0.80 61 1018.8
20260502013138 60 258 2.0 6.0 0.00 0.80 0.80 58 1018.6
20260502011631 61 283 3.0 7.0 0.00 0.80 0.80 56 1018.3
20260502010142 61 265 3.0 8.0 0.00 0.80 0.80 55 1018.1
20260502004653 62 279 4.0 10.0 0.00 0.80 0.80 52 1018.0
20260502003128 64 266 6.0 10.0 0.00 0.80 0.80 50 1017.8
20260502001637 65 252 5.0 11.0 0.00 0.80 0.80 51 1017.7
20260502000136 65 250 6.0 10.0 0.00 0.80 0.80 52 1017.5
20260501234627 65 290 6.0 9.0 0.00 0.80 0.80 48 1017.3